sat.trackr.live / text

‹ back to catalog

STARLINK-34897

NORAD 65212 · 2025-176Q

PAYLOAD ACTIVE UNKNOWN

§ Identity

Operator
Country
US
Launch date
2025-08-14
Launch site
AFETR
Launch vehicle
Mass (kg)
RCS (m²)

Purposes: comms

External: N2YO · Heavens-Above · Gunter

§ Orbital elements

Epoch: 2026-05-25T01:38:49.807392Z

Period
93.85 min
Inclination
53.1561°
Eccentricity
0.0001368
Mean motion
15.34402698 rev/d
Perigee alt
461.8 km
Apogee alt
463.6 km
Semi-major
6,840.8 km
B*
5.0750e-4
RAAN
157.3047°
Arg perigee
91.6534°
Mean anomaly
268.4625°
Rev number
4,482

§ Raw data

STARLINK-348971 65212U 25176Q   26145.06863203  .00016810  00000+0  50750-3 0  99982 65212  53.1561 157.3047 0001368  91.6534 268.4625 15.34402698 44825

JSON: /api/v1/satellites/65212 · /tle

For live sub-satellite position, see the globe view (requires WebGL).

§ Visibility from observer

Set your observer location to see the next 7 days of passes ≥ 10°. The values pass through the URL so the page stays shareable.

No JS? Fill the form by hand. The geolocation button needs JavaScript.